Weather History for Fayetteville, AR

Change the Weather History Date:

Wednesday, August 21, 2013

  Actual Average Record
Temperature  
Mean Temperature 74 °F 77 °F  
Max Temperature 89 °F 89 °F 100 °F (2010)
Min Temperature 58 °F 65 °F 46 °F (1956)
Cooling Degree Days 9 12  
Month to date cooling degree days 208 268  
Year to date cooling degree days 989 1017  
Since 1 June cooling degree days 853 904  
Growing Degree Days 24 (Base 50)    
Moisture  
Dew Point 63 °F    
Average Humidity 72    
Maximum Humidity 100    
Minimum Humidity 43    
Precipitation  
Precipitation 0.00 in 0.10 in 0.69 in (2003)
Month to date precipitation 2.82 2.17  
Year to date precipitation 31.07 30.82  
Sea Level Pressure  
Sea Level Pressure 30.08 in    
Wind  
Wind Speed 3 mph (South)    
Max Wind Speed 15 mph    
Max Gust Speed 18 mph    
Visibility 8 miles    
Events      
T = Trace of Precipitation, MM = Missing Value Source: NWS Daily Summary

Daily Weather History Graph

Daily Weather History Graph

Search for Another Location

Airport:

Trip Planner

Search our weather history database for the weather conditions in past years. The results will help you decide how hot, cold, wet, or windy it might be!

Date:

Astronomy

Aug. 21, 2013 Rise Set
Actual Time 6:40 AM CDT 7:58 PM CDT
Civil Twilight 6:13 AM CDT 8:25 PM CDT
Nautical Twilight 5:41 AM CDT 8:57 PM CDT
Astronomical Twilight 5:07 AM CDT 9:30 PM CDT
Moon 8:12 PM CDT (8/21) 7:17 AM CDT (8/21)
Length of Visible Light 14h 12m
Length of Day
13h 18m
Waxing Gibbous, 99% of the Moon is Illuminated
Aug 21
Waxing Gibbous
Aug 28
Last Quarter
Sep 5
New
Sep 12
First Quarter
Sep 19
Full

Hourly Weather History & Observations

Time (CDT) Temp. Heat Index Dew Point Humidity Pressure Visibility Wind Dir Wind Speed Gust Speed Precip Events Conditions
12:53 AM 63.0 °F - 62.1 °F 97% 30.06 in 7.0 mi Calm Calm - N/A   Clear
1:53 AM 62.1 °F - 61.0 °F 96% 30.06 in 8.0 mi Calm Calm - N/A   Clear
2:41 AM 60.8 °F - 60.8 °F 100% 30.10 in 1.8 mi Calm Calm - N/A   Clear
2:50 AM 60.8 °F - 60.8 °F 100% 30.09 in 3.0 mi Calm Calm - N/A   Clear
2:53 AM 61.0 °F - 61.0 °F 100% 30.06 in 6.0 mi Calm Calm - N/A   Clear
3:07 AM 60.8 °F - 60.8 °F 100% 30.10 in 2.5 mi Calm Calm - N/A   Clear
3:22 AM 60.8 °F - 60.8 °F 100% 30.10 in 3.0 mi Calm Calm - N/A   Clear
3:53 AM 61.0 °F - 60.1 °F 97% 30.07 in 7.0 mi Calm Calm - N/A   Clear
4:53 AM 60.1 °F - 60.1 °F 100% 30.07 in 6.0 mi Calm Calm - N/A   Clear
5:23 AM 60.8 °F - 60.8 °F 100% 30.10 in 1.8 mi Calm Calm - N/A   Clear
5:31 AM 60.8 °F - 59.0 °F 94% 30.11 in 3.0 mi Calm Calm - N/A   Clear
5:53 AM 60.1 °F - 59.0 °F 96% 30.08 in 6.0 mi Calm Calm - N/A   Clear
6:53 AM 59.0 °F - 59.0 °F 100% 30.09 in 6.0 mi Calm Calm - N/A   Clear
7:53 AM 64.0 °F - 61.0 °F 90% 30.10 in 8.0 mi Calm Calm - N/A   Clear
8:53 AM 73.0 °F - 64.9 °F 76% 30.11 in 10.0 mi Calm Calm - N/A   Clear
9:53 AM 80.1 °F 82.1 °F 66.0 °F 62% 30.12 in 10.0 mi South 8.1 mph - N/A   Clear
10:53 AM 82.9 °F 85.0 °F 66.0 °F 56% 30.12 in 10.0 mi South 10.4 mph - N/A   Clear
11:53 AM 84.9 °F 87.1 °F 66.0 °F 53% 30.12 in 10.0 mi South 13.8 mph - N/A   Clear
12:53 PM 87.1 °F 88.9 °F 64.9 °F 48% 30.11 in 10.0 mi South 12.7 mph - N/A   Partly Cloudy
1:53 PM 86.0 °F 87.6 °F 64.9 °F 49% 30.10 in 10.0 mi SSE 8.1 mph 16.1 mph N/A   Scattered Clouds
2:53 PM 88.0 °F 89.3 °F 64.0 °F 45% 30.07 in 10.0 mi South 10.4 mph - N/A   Clear
3:53 PM 88.0 °F 88.7 °F 63.0 °F 43% 30.06 in 10.0 mi Calm Calm - N/A   Clear
4:53 PM 86.0 °F 86.8 °F 63.0 °F 46% 30.05 in 10.0 mi Calm Calm - N/A   Mostly Cloudy
5:53 PM 86.0 °F 88.2 °F 66.0 °F 51% 30.05 in 10.0 mi SSE 4.6 mph - N/A   Overcast
6:53 PM 82.9 °F 84.6 °F 64.9 °F 54% 30.05 in 10.0 mi SE 5.8 mph - N/A   Mostly Cloudy
7:53 PM 78.1 °F - 66.9 °F 68% 30.05 in 10.0 mi South 3.5 mph - N/A   Clear
8:53 PM 72.0 °F - 66.9 °F 84% 30.06 in 10.0 mi Calm Calm - N/A   Clear
9:53 PM 70.0 °F - 66.0 °F 87% 30.07 in 10.0 mi Calm Calm - N/A   Clear
10:53 PM 69.1 °F - 66.0 °F 90% 30.07 in 10.0 mi South 3.5 mph - N/A   Clear
11:53 PM 66.0 °F - 64.9 °F 96% 30.08 in 7.0 mi Calm Calm - N/A   Clear